Location: Quedlinburg
(51.7921°N, 11.1414°E)
Time: 17:22:04
(UTC+02:00)

NOAA 18 - Pass Details

Date: 14 March 2026
Orbit: 837 x 857 km, 98.8° (Epoch: 15 April)

Event Time Altitude Azimuth Distance (km) Brightness Sun altitude
Exits shadow 21:40:45 39° 26° (NNE) 1,242 6.1 -29.9°
Drops below altitude 10° 21:44:36 10° 354° (N) 2,464 8.2 -30.3°
Sets 21:47:02 0° 348° (NNW) 3,403 9.1 -30.6°
